Starlink 33598

operational
NORAD ID: 62771 Int'l Des: 2025-015 Owner: SPXS Country: US Constellation: starlink
LEOCIRCULAR

Über Starlink 33598

Beschreibung wird geladen...

Live-Position

3D-Globus wird geladen...

Nächste Überflüge

Höhenverlauf

Altitude vs Time

uPlot chart will show altitude changes over time

Zweizeiliger Elementsatz

1 62771U 25015P 26036.61557924 .00044395 00000-0 15011-2 0 9997
2 62771 53.1582 111.2093 0001167 56.3597 303.7515 15.30221822 59572
Epoch: 5. Feb. 2026 • Age: 9 hours

Aktueller Status

Höhe 480.9 km
Geschwindigkeit 7.62 km/s
Subsatellitenpunkt -18.84°S, 175.66°E
Startdatum 21. Jan. 2025
Alter 1 years
Typ internet

Technische Details

Klassifizierung Payload
Masse 575.00 kg
Trockenmasse 530.00 kg
Gesamtmasse 575.00 kg
Länge 0.30 m
Durchmesser 4.10 m
Spannweite 29.00 m
Form Box + pan
Hersteller SPXS
Bus-Typ Starlink V2MO
Phasenstatus In Orbit
Besitzer/Staat SPXS/US

Große Konstellationen

Loading constellations...